NIMBUS 2 DEB, 37892

Orbit data source: Space-Track

NIMBUS 2 DEB, 37892 is space debris in SSO originally from a launch on Sun, 15 May 1966 UTC launched from the Air Force Western Test Range (AFWTR). Debris objects in space refer to the collection of defunct objects orbiting the Earth. Examples of debris include non-operational satellites, rocket bodies, and fragments generated from explosions, collisions, or faulty payload assembly.

Loading next visibility...
Identifier
37892, 1966-040AX
Orbit
SSO
Country
Flag of USUS
Related business
Manufacturer
Unknown
Mission
Spacecraft
Bus & Motor
Unknown
Mass
Unknown
Launch date (UTC)
1966-05-15 (59 years ago)
Launch vehicle
Unknown
Launch site
Air Force Western Test Range (AFWTR)
Object type
Payload
Rocket body
Debris
Shape & HBR
Unknown shape, 0.1 m
Radar Cross Section
Small (<0.1 m²)

Expand to show TLE details & history
Last TLE update: 19 hours ago

TLE from 19 hours ago
0 NIMBUS 2 DEB
1 37892U 66040AX  25295.37533846  .00003001  00000-0  49595-2 0  9995
2 37892 100.5095 237.4910 0053504  39.9299  85.8653 13.47258724329849
Epoch: 2025-10-22T09:00Z
TLE epoch observation values (Epoch: 2025-10-22T09:00:29.242Z)
Latitude
52.40761°
Longitude
-94.81065°
Altitude
1,088.081 km
Speed
7.314 km/s
True Right ascension
04h 45m 26s
True Declination
52° 14' 55"
Sunlit
Object was in full shadow at epoch
Visualization orbit readout
Latitude
Unknown
Longitude
Unknown
Altitude
Unknown
Speed
Unknown
Apparent Right ascension
Unknown
Apparent Declination
Unknown
Sunlit
N/A
Visualization observer readout
Local Sidereal Time
22:56:09
Azimuth
Unknown
Elevation
Unknown
Doppler factor
Unknown
Orbital elements
Apogee altitude
1,119.612 km
Perigee altitude
1,039.807 km
Semi-major axis
7,457.846 km
Eccentricity
0.00535
Inclination
100.5095°
RAAN
237.491°
Arg. of periapsis
39.9299°
True anomaly
86.4771°
Mean anomaly
85.8653°
Eccentric anomaly
86.17117°
Mean motion
3.36995 °/min
Orbital period
106.83 mins
BSTAR
0.0049595
Loading maneuver chart data...
Computing Atmospheric mass density...
Loading historical data...
Loading historical data...
Loading historical data...
Loading historical data...
Loading historical data...
Loading historical data...
Loading historical data...

Documentation

Showing up to 5 results
|